Regional Weather Roundup
Issued by NWS

Home | Current Version | Previous Version | Graphics & Text | Print | Product List | Glossary On
Versions: 1 2 3 4 5 6 7 8 9 10 11 12 13 14 15 16 17 18 19 20 21 22 23 24 25 26 27 28 29 30 31 32 33 34 35 36 37 38 39 40 41 42 43 44 45 46 47 48 49 50
564
ASUS43 KLMK 251402
RWRKY
KENTUCKY REGIONAL WEATHER ROUNDUP
NATIONAL WEATHER SERVICE LOUISVILLE KY
1000 AM EDT THU MAY 25 2017

NOTE "FAIR" INDICATES FEW OR NO CLOUDS BELOW 12,000 FEET
WITH NO SIGNIFICANT WEATHER AND/OR OBSTRUCTIONS TO VISIBILITY.

KYZ001>023-026-027-061>063-070>075-251500-
WESTERN AND SOUTH CENTRAL KENTUCKY

CITY           SKY/WX    TMP DP  RH WIND       PRES   REMARKS
PADUCAH        SUNNY     63  52  67 NW9       29.70R
HENDERSON      CLOUDY    59  55  87 W12       29.65R
OWENSBORO      CLOUDY    59  55  87 W16G23    29.63R
HOPKINSVILLE   MOSUNNY   61  55  82 W12       29.69R
BOWLING GREEN  CLOUDY    60  56  86 W10       29.65R
GLASGOW        NOT AVBL
$$

KYZ024-025-028>034-038-045-046-053-251500-
NORTH CENTRAL KENTUCKY

CITY           SKY/WX    TMP DP  RH WIND       PRES   REMARKS
LOUISVILLE/SDF LGT RAIN  60  56  86 W17G23    29.52R
LOUISVILLE/LOU HVY RAIN  59  58  96 W12       29.52R FOG
FORT KNOX      CLOUDY    58  56  94 W15G25    29.54R
$$

KYZ035>037-039>044-047>052-055>060-089>105-251500-
NORTHEAST KENTUCKY

CITY           SKY/WX    TMP DP  RH WIND       PRES   REMARKS
LEXINGTON      LGT RAIN  58  54  86 W14       29.51R FOG
COVINGTON      CLOUDY    58  57  97 W13       29.43R FOG
FRANKFORT      LGT RAIN  58  54  86 SW12G17   29.49R FOG
$$

KYZ054-064>069-076>088-106>120-251500-
SOUTHEAST KENTUCKY

CITY           SKY/WX    TMP DP  RH WIND       PRES   REMARKS
JACKSON        LGT RAIN  53  52  96 VRB3      29.56R FOG
LONDON         LGT RAIN  54  51  90 SW9       29.59R
SOMERSET       NOT AVBL
MIDDLESBORO    CLOUDY    54  53  96 CALM      29.64R
MONTICELLO     LGT RAIN  56  54  93 W22G28    29.64R
$$





USA.gov is the U.S. government's official web portal to all federal, state and local government web resources and services.